| time (UTC) | temp F | wind direction | speed MPH | gust MPH | rain 1hr in | rain 24hr in | rain mn in | humidity % | barometer mb |
| 20260510051811 | -25 | 45 | 1.0 | 1.0 | 0.00 | 0.00 | 0.00 | 13 | 952.6 |
| 20260510050811 | -25 | 45 | 1.0 | 1.0 | 0.00 | 0.00 | 0.00 | 13 | 952.7 |
| 20260510045810 | -25 | 45 | 1.0 | 1.0 | 0.00 | 0.00 | 0.00 | 13 | 952.7 |
| 20260510044810 | -25 | 45 | 1.0 | 1.0 | 0.00 | 0.00 | 0.00 | 13 | 952.7 |
| 20260510043810 | -25 | 45 | 1.0 | 1.0 | 0.00 | 0.00 | 0.00 | 13 | 952.7 |
| 20260510042809 | -25 | 45 | 1.0 | 1.0 | 0.00 | 0.00 | 0.00 | 13 | 952.7 |
| 20260510041809 | -25 | 45 | 1.0 | 1.0 | 0.00 | 0.00 | 0.00 | 13 | 952.8 |
| 20260510040809 | -25 | 45 | 1.0 | 1.0 | 0.00 | 0.00 | 0.00 | 13 | 952.8 |
| 20260510035808 | -25 | 45 | 1.0 | 1.0 | 0.00 | 0.00 | 0.00 | 13 | 952.8 |
| 20260510034808 | -25 | 45 | 1.0 | 1.0 | 0.00 | 0.00 | 0.00 | 13 | 952.8 |
| 20260510033808 | -25 | 45 | 1.0 | 1.0 | 0.00 | 0.00 | 0.00 | 13 | 952.8 |
| 20260510032808 | -25 | 45 | 1.0 | 1.0 | 0.00 | 0.00 | 0.00 | 13 | 952.7 |
| 20260510031807 | -25 | 45 | 1.0 | 1.0 | 0.00 | 0.00 | 0.00 | 13 | 952.7 |
| 20260510030807 | -25 | 45 | 1.0 | 1.0 | 0.00 | 0.00 | 0.00 | 13 | 952.7 |
| 20260510025807 | -25 | 45 | 1.0 | 1.0 | 0.00 | 0.00 | 0.00 | 13 | 952.7 |
| 20260510024806 | -25 | 45 | 1.0 | 1.0 | 0.00 | 0.00 | 0.00 | 13 | 952.7 |
| 20260510023806 | -25 | 45 | 1.0 | 1.0 | 0.00 | 0.00 | 0.00 | 13 | 952.7 |
| 20260510022806 | -25 | 45 | 1.0 | 1.0 | 0.00 | 0.00 | 0.00 | 13 | 952.7 |
| 20260510021806 | -25 | 45 | 1.0 | 1.0 | 0.00 | 0.00 | 0.00 | 13 | 952.7 |
| 20260510020805 | -25 | 45 | 1.0 | 1.0 | 0.00 | 0.00 | 0.00 | 13 | 952.7 |
| 20260510015805 | -25 | 45 | 1.0 | 1.0 | 0.00 | 0.00 | 0.00 | 13 | 952.8 |
| 20260510014805 | -25 | 45 | 1.0 | 1.0 | 0.00 | 0.00 | 0.00 | 13 | 952.8 |
| 20260510013804 | -25 | 45 | 1.0 | 1.0 | 0.00 | 0.00 | 0.00 | 13 | 952.8 |
| 20260510012804 | -25 | 45 | 1.0 | 1.0 | 0.00 | 0.00 | 0.00 | 13 | 952.8 |
| 20260510011804 | -25 | 45 | 1.0 | 1.0 | 0.00 | 0.00 | 0.00 | 13 | 952.9 |
| 20260510010804 | -25 | 45 | 1.0 | 1.0 | 0.00 | 0.00 | 0.00 | 13 | 953.0 |
| 20260510005803 | -25 | 45 | 1.0 | 1.0 | 0.00 | 0.00 | 0.00 | 13 | 953.0 |
| 20260510004803 | -25 | 45 | 1.0 | 1.0 | 0.00 | 0.00 | 0.00 | 13 | 953.1 |
| 20260510003803 | -25 | 45 | 1.0 | 1.0 | 0.00 | 0.00 | 0.00 | 13 | 953.1 |
| 20260510002802 | -25 | 45 | 1.0 | 1.0 | 0.00 | 0.00 | 0.00 | 13 | 953.0 |
| 20260510001802 | -25 | 45 | 1.0 | 1.0 | 0.00 | 0.00 | 0.00 | 13 | 953.0 |
| 20260510000802 | -25 | 45 | 1.0 | 1.0 | 0.00 | 0.00 | 0.00 | 13 | 953.1 |
| 20260509235801 | -25 | 45 | 1.0 | 1.0 | 0.00 | 0.00 | 0.00 | 13 | 953.2 |
| 20260509234801 | -25 | 45 | 1.0 | 1.0 | 0.00 | 0.00 | 0.00 | 13 | 953.2 |
| 20260509233801 | -25 | 45 | 1.0 | 1.0 | 0.00 | 0.00 | 0.00 | 13 | 953.3 |
| 20260509232801 | -25 | 45 | 1.0 | 1.0 | 0.00 | 0.00 | 0.00 | 13 | 953.4 |
| 20260509231800 | -25 | 45 | 1.0 | 1.0 | 0.00 | 0.00 | 0.00 | 13 | 953.4 |
| 20260509230800 | 49 | 45 | 1.0 | 1.0 | 0.00 | 0.00 | 0.00 | 28 | 1020.0 |
| 20260509225800 | 49 | 78 | 2.0 | 4.0 | 0.00 | 0.00 | 0.00 | 28 | 1020.0 |
| 20260509224759 | 49 | 50 | 7.0 | 7.0 | 0.00 | 0.00 | 0.00 | 28 | 1020.1 |
| 20260509223759 | 49 | 45 | 5.0 | 7.0 | 0.00 | 0.00 | 0.00 | 28 | 1020.1 |
| 20260509222759 | 49 | 45 | 3.0 | 4.0 | 0.00 | 0.00 | 0.00 | 28 | 1020.1 |
| 20260509221759 | 49 | 66 | 3.0 | 4.0 | 0.00 | 0.00 | 0.00 | 28 | 1020.1 |
| 20260509220758 | 49 | 81 | 5.0 | 5.0 | 0.00 | 0.00 | 0.00 | 28 | 1020.1 |
| 20260509215758 | -25 | 90 | 5.0 | 5.0 | 0.00 | 0.00 | 0.00 | 13 | 953.5 |
| 20260509214758 | 50 | 90 | 5.0 | 5.0 | 0.00 | 0.00 | 0.00 | 27 | 1020.2 |
| 20260509213757 | 50 | 90 | 5.0 | 5.0 | 0.00 | 0.00 | 0.00 | 27 | 1020.3 |
| 20260509212757 | 50 | 90 | 5.0 | 5.0 | 0.00 | 0.00 | 0.00 | 27 | 1020.3 |
| 20260509211800 | 50 | 90 | 4.0 | 5.0 | 0.00 | 0.00 | 0.00 | 27 | 1020.4 |
| 20260509210756 | 50 | 90 | 3.0 | 3.0 | 0.00 | 0.00 | 0.00 | 27 | 1020.5 |
| 20260509205756 | 50 | 90 | 3.0 | 3.0 | 0.00 | 0.00 | 0.00 | 27 | 1020.5 |
| 20260509204756 | 50 | 80 | 3.0 | 3.0 | 0.00 | 0.00 | 0.00 | 27 | 1020.6 |
| 20260509203756 | -25 | 45 | 2.0 | 2.0 | 0.00 | 0.00 | 0.00 | 13 | 953.8 |
| 20260509202755 | -25 | 45 | 2.0 | 2.0 | 0.00 | 0.00 | 0.00 | 13 | 953.7 |
| 20260509201755 | -25 | 45 | 2.0 | 2.0 | 0.00 | 0.00 | 0.00 | 13 | 953.7 |
| 20260509200755 | -25 | 45 | 2.0 | 2.0 | 0.00 | 0.00 | 0.00 | 13 | 953.6 |
| 20260509195754 | -25 | 45 | 2.0 | 2.0 | 0.00 | 0.00 | 0.00 | 13 | 953.6 |
| 20260509194754 | -25 | 45 | 2.0 | 2.0 | 0.00 | 0.00 | 0.00 | 13 | 953.5 |
| 20260509193754 | 53 | 45 | 2.0 | 2.0 | 0.00 | 0.00 | 0.00 | 27 | 1020.5 |
| 20260509192754 | 53 | 45 | 2.0 | 2.0 | 0.00 | 0.00 | 0.00 | 27 | 1020.5 |
| 20260509191753 | 53 | 45 | 2.0 | 2.0 | 0.00 | 0.00 | 0.00 | 27 | 1020.5 |
| 20260509190753 | 53 | 45 | 2.0 | 2.0 | 0.00 | 0.00 | 0.00 | 27 | 1020.5 |
| 20260509185753 | 53 | 45 | 2.0 | 2.0 | 0.00 | 0.00 | 0.00 | 27 | 1020.4 |
| 20260509184752 | 53 | 85 | 4.0 | 5.0 | 0.00 | 0.00 | 0.00 | 27 | 1020.3 |
| 20260509183752 | 54 | 90 | 5.0 | 5.0 | 0.00 | 0.00 | 0.00 | 26 | 1020.3 |
| 20260509182752 | 54 | 90 | 5.0 | 5.0 | 0.00 | 0.00 | 0.00 | 26 | 1020.1 |
| 20260509181752 | 55 | 90 | 5.0 | 5.0 | 0.00 | 0.00 | 0.00 | 26 | 1020.0 |
| 20260509180751 | 55 | 90 | 5.0 | 5.0 | 0.00 | 0.00 | 0.00 | 26 | 1019.9 |
| 20260509175751 | -25 | 90 | 5.0 | 5.0 | 0.00 | 0.00 | 0.00 | 13 | 952.8 |
| 20260509174751 | -25 | 90 | 5.0 | 5.0 | 0.00 | 0.00 | 0.00 | 13 | 952.7 |
| 20260509173750 | -25 | 90 | 5.0 | 5.0 | 0.00 | 0.00 | 0.00 | 13 | 952.7 |
| 20260509172750 | -25 | 116 | 4.0 | 5.0 | 0.00 | 0.00 | 0.00 | 13 | 952.6 |
| 20260509171750 | -25 | 45 | 4.0 | 4.0 | 0.00 | 0.00 | 0.00 | 13 | 952.6 |
| 20260509170749 | -25 | 45 | 5.0 | 8.0 | 0.00 | 0.00 | 0.00 | 13 | 952.4 |
| 20260509165749 | -25 | 45 | 8.0 | 8.0 | 0.00 | 0.00 | 0.00 | 13 | 952.3 |
| 20260509164749 | -25 | 45 | 7.0 | 9.0 | 0.00 | 0.00 | 0.00 | 13 | 952.2 |
| 20260509163749 | -25 | 59 | 6.0 | 9.0 | 0.00 | 0.00 | 0.00 | 13 | 952.1 |
| 20260509162748 | 60 | 118 | 4.0 | 6.0 | 0.00 | 0.00 | 0.00 | 25 | 1019.6 |
| 20260509161748 | 60 | 77 | 4.0 | 8.0 | 0.00 | 0.00 | 0.00 | 25 | 1019.5 |
| 20260509160748 | 61 | 53 | 7.0 | 8.0 | 0.00 | 0.00 | 0.00 | 24 | 1019.7 |
| 20260509155747 | 63 | 66 | 5.0 | 8.0 | 0.00 | 0.00 | 0.00 | 24 | 1019.9 |
| 20260509154747 | 65 | 55 | 6.0 | 8.0 | 0.00 | 0.00 | 0.00 | 23 | 1020.0 |
| 20260509153747 | 64 | 51 | 6.0 | 10.0 | 0.00 | 0.00 | 0.00 | 24 | 1019.9 |
| 20260509152747 | 64 | 44 | 5.0 | 10.0 | 0.00 | 0.00 | 0.00 | 24 | 1019.8 |
| 20260509151746 | 65 | 55 | 6.0 | 13.0 | 0.00 | 0.00 | 0.00 | 23 | 1019.9 |
| 20260509150746 | 67 | 100 | 5.0 | 8.0 | 0.00 | 0.00 | 0.00 | 23 | 1019.9 |
| 20260509145746 | 67 | 82 | 6.0 | 8.0 | 0.00 | 0.00 | 0.00 | 23 | 1020.0 |
| 20260509144745 | 68 | 90 | 4.0 | 11.0 | 0.00 | 0.00 | 0.00 | 23 | 1019.9 |
| 20260509143745 | 67 | 52 | 6.0 | 7.0 | 0.00 | 0.00 | 0.00 | 23 | 1019.8 |
| 20260509142745 | 66 | 56 | 5.0 | 8.0 | 0.00 | 0.00 | 0.00 | 23 | 1019.9 |
| 20260509141745 | 68 | 63 | 7.0 | 10.0 | 0.00 | 0.00 | 0.00 | 23 | 1019.9 |
| 20260509140744 | 68 | 49 | 5.0 | 8.0 | 0.00 | 0.00 | 0.00 | 23 | 1019.9 |
| 20260509135744 | 68 | 38 | 5.0 | 8.0 | 0.00 | 0.00 | 0.00 | 23 | 1020.0 |
| 20260509134744 | 68 | 25 | 5.0 | 9.0 | 0.00 | 0.00 | 0.00 | 23 | 1020.0 |
| 20260509133743 | 68 | 1 | 4.0 | 4.0 | 0.00 | 0.00 | 0.00 | 23 | 1020.1 |
| 20260509132743 | 68 | 1 | 4.0 | 4.0 | 0.00 | 0.00 | 0.00 | 23 | 1020.2 |
| 20260509131743 | 68 | 25 | 4.0 | 8.0 | 0.00 | 0.00 | 0.00 | 23 | 1020.3 |
| 20260509130743 | 69 | 96 | 7.0 | 9.0 | 0.00 | 0.00 | 0.00 | 22 | 1020.3 |
| 20260509125742 | 67 | 108 | 5.0 | 6.0 | 0.00 | 0.00 | 0.00 | 23 | 1020.3 |
| 20260509124742 | 68 | 73 | 6.0 | 9.0 | 0.00 | 0.00 | 0.00 | 22 | 1020.4 |
| 20260509123742 | 69 | 101 | 7.0 | 9.0 | 0.00 | 0.00 | 0.00 | 22 | 1020.6 |
| 20260509122741 | 68 | 80 | 3.0 | 8.0 | 0.00 | 0.00 | 0.00 | 23 | 1020.6 |
| 20260509121741 | 70 | 99 | 5.0 | 8.0 | 0.00 | 0.00 | 0.00 | 22 | 1020.5 |
| 20260509120741 | 68 | 125 | 6.0 | 8.0 | 0.00 | 0.00 | 0.00 | 23 | 1020.7 |
| 20260509115740 | 68 | 100 | 3.0 | 10.0 | 0.00 | 0.00 | 0.00 | 23 | 1020.6 |
| 20260509114740 | 67 | 131 | 6.0 | 10.0 | 0.00 | 0.00 | 0.00 | 23 | 1020.7 |
| 20260509113740 | 66 | 108 | 5.0 | 8.0 | 0.00 | 0.00 | 0.00 | 23 | 1020.6 |
| 20260509112740 | 66 | 57 | 3.0 | 4.0 | 0.00 | 0.00 | 0.00 | 23 | 952.6 |
| 20260509111739 | 66 | 110 | 6.0 | 13.0 | 0.00 | 0.00 | 0.00 | 23 | 1020.8 |
| 20260509110739 | 67 | 64 | 5.0 | 8.0 | 0.00 | 0.00 | 0.00 | 23 | 1020.9 |
| 20260509105739 | 67 | 121 | 5.0 | 8.0 | 0.00 | 0.00 | 0.00 | 23 | 1021.0 |
| 20260509104738 | 68 | 133 | 5.0 | 8.0 | 0.00 | 0.00 | 0.00 | 23 | 1021.0 |
| 20260509103738 | 65 | 64 | 6.0 | 8.0 | 0.00 | 0.00 | 0.00 | 23 | 1021.0 |
| 20260509102738 | 64 | 144 | 5.0 | 6.0 | 0.00 | 0.00 | 0.00 | 24 | 1021.0 |
| 20260509101738 | 65 | 80 | 5.0 | 8.0 | 0.00 | 0.00 | 0.00 | 23 | 1021.1 |
| 20260509100737 | 64 | 69 | 6.0 | 8.0 | 0.00 | 0.00 | 0.00 | 24 | 1021.2 |
| 20260509095737 | 62 | 90 | 6.0 | 8.0 | 0.00 | 0.00 | 0.00 | 24 | 1021.1 |
| 20260509094737 | 64 | 90 | 6.0 | 9.0 | 0.00 | 0.00 | 0.00 | 24 | 1021.2 |
| 20260509093736 | 64 | 82 | 4.0 | 6.0 | 0.00 | 0.00 | 0.00 | 24 | 1021.3 |
| 20260509092736 | 64 | 89 | 6.0 | 8.0 | 0.00 | 0.00 | 0.00 | 24 | 1021.2 |
| 20260509091736 | 63 | 74 | 5.0 | 8.0 | 0.00 | 0.00 | 0.00 | 24 | 1021.3 |
| 20260509090735 | 64 | 111 | 3.0 | 5.0 | 0.00 | 0.00 | 0.00 | 24 | 1021.3 |
| 20260509085735 | 63 | 19 | 4.0 | 7.0 | 0.00 | 0.00 | 0.00 | 24 | 1021.2 |
| 20260509084735 | 62 | 72 | 5.0 | 9.0 | 0.00 | 0.00 | 0.00 | 24 | 1021.2 |
| 20260509083735 | 61 | 53 | 5.0 | 8.0 | 0.00 | 0.00 | 0.00 | 24 | 1021.3 |
| 20260509082734 | 62 | 74 | 4.0 | 8.0 | 0.00 | 0.00 | 0.00 | 24 | 1021.2 |
| 20260509081734 | 62 | 118 | 5.0 | 8.0 | 0.00 | 0.00 | 0.00 | 24 | 1021.0 |
| 20260509080734 | 61 | 90 | 8.0 | 8.0 | 0.00 | 0.00 | 0.00 | 24 | 1021.1 |
| 20260509075733 | 61 | 122 | 3.0 | 8.0 | 0.00 | 0.00 | 0.00 | 25 | 1021.0 |
| 20260509074733 | 61 | 83 | 4.0 | 8.0 | 0.00 | 0.00 | 0.00 | 24 | 1021.0 |
| 20260509073733 | 60 | 90 | 5.0 | 6.0 | 0.00 | 0.00 | 0.00 | 25 | 1021.0 |
| 20260509072733 | 60 | 57 | 4.0 | 5.0 | 0.00 | 0.00 | 0.00 | 25 | 1020.9 |
| 20260509071732 | 61 | 68 | 2.0 | 4.0 | 0.00 | 0.00 | 0.00 | 25 | 1021.0 |
| 20260509070732 | 59 | 81 | 3.0 | 4.0 | 0.00 | 0.00 | 0.00 | 25 | 1020.8 |
| 20260509065732 | 58 | 100 | 4.0 | 5.0 | 0.00 | 0.00 | 0.00 | 25 | 1020.8 |
| 20260509064731 | 57 | 28 | 5.0 | 8.0 | 0.00 | 0.00 | 0.00 | 26 | 1020.7 |
| 20260509063731 | 60 | 30 | 4.0 | 5.0 | 0.00 | 0.00 | 0.00 | 25 | 1021.0 |
| 20260509062731 | 58 | 55 | 4.0 | 5.0 | 0.00 | 0.00 | 0.00 | 25 | 1020.9 |
| 20260509061731 | 58 | 87 | 3.0 | 5.0 | 0.00 | 0.00 | 0.00 | 25 | 1020.8 |
| 20260509060730 | 57 | 94 | 3.0 | 4.0 | 0.00 | 0.00 | 0.00 | 26 | 1020.7 |
| 20260509055730 | 56 | 81 | 3.0 | 4.0 | 0.00 | 0.00 | 0.00 | 26 | 1020.7 |
| 20260509054730 | 56 | 59 | 2.0 | 5.0 | 0.00 | 0.00 | 0.00 | 26 | 1020.7 |
| 20260509053729 | -25 | 0 | 0.0 | 0.0 | 0.00 | 0.00 | 0.00 | 13 | 953.5 |
| 20260509052729 | -25 | 0 | 0.0 | 0.0 | 0.00 | 0.00 | 0.00 | 13 | 953.6 |